Regional Weather Roundup
Issued by NWS

Home | Current Version | Previous Version | Graphics & Text | Print | Product List | Glossary On
Versions: 1 2 3 4 5 6 7 8 9 10 11 12 13 14 15 16 17 18 19 20 21 22 23 24 25 26 27 28 29 30 31 32 33 34 35 36 37 38 39 40 41 42 43 44 45 46 47 48 49 50
000
ASUS44 KMEG 261400
RWRTN
TENNESSEE HOURLY STATE WEATHER ROUNDUP
NATIONAL WEATHER SERVICE MEMPHIS TN
900 AM CDT TUE SEP 26 2017

TNZ002-004-019-021-049-052-054-088>092-261500-
WEST TENNESSEE

CITY           SKY/WX    TMP DP  RH WIND       PRES   REMARKS
MEMPHIS INTL   SUNNY     78  67  68 SE3       30.01R
NWS MEMPHIS      N/A     74 N/A N/A MISG        N/A
JACKSON        SUNNY     76  69  79 CALM      30.02R
DYERSBURG      SUNNY     75  70  84 CALM      30.02R
$$

TNZ008-025-027-028-033-062-065-066-261500-
NORTH MIDDLE TENNESSEE

CITY           SKY/WX    TMP DP  RH WIND       PRES   REMARKS
NASHVILLE      MOSUNNY   75  67  76 CALM      30.03R
CLARKSVILLE    SUNNY     73  66  78 CALM      30.02R
SMYRNA         SUNNY     74  68  82 CALM      30.05R
CROSSVILLE     SUNNY     72  63  73 SW5       30.09S
$$

TNZ061-075-076-078-094-096-097-261500-
SOUTH MIDDLE TENNESSEE

CITY           SKY/WX    TMP DP  RH WIND       PRES   REMARKS
TULLAHOMA      MOSUNNY   73  64  73 CALM      30.06S
WINCHESTER     SUNNY     73  64  73 CALM      30.05R
MCMINNVILLE    SUNNY     72  70  94 CALM      30.05S
$$

TNZ017-018-042-046-047-261500-
NORTHEAST TENNESSEE

CITY           SKY/WX    TMP DP  RH WIND       PRES   REMARKS
TRI CITIES     MOSUNNY   69  63  81 CALM      30.08R
$$

TNZ012-013-036-069-073-074-261500-
CENTRAL EAST TENNESSEE

CITY           SKY/WX    TMP DP  RH WIND       PRES   REMARKS
KNOXVILLE      MOSUNNY   70  62  76 CALM      30.05R
OAK RIDGE      SUNNY     70  64  81 CALM      30.07R
GATLINBURG     SUNNY     70  59  68 CALM      30.05S
$$

TNZ083-085-099-261500-
SOUTHEAST TENNESSEE

CITY           SKY/WX    TMP DP  RH WIND       PRES   REMARKS
CHATTANOOGA    SUNNY     72  64  76 CALM      30.05R
$$

SKY/WX REPORTED AS FAIR MEANS FEW OR NO CLOUDS BELOW
12 THOUSAND FEET.





USA.gov is the U.S. government's official web portal to all federal, state and local government web resources and services.